Location: Axtheid
(49.6213°N, 11.8205°E)
Time: 13:54:06
(UTC+00:00)

Meteor 2-15 Rocket - Pass Details

Date: 24 January 2021
Orbit: 940 x 955 km, 82.5° (Epoch: 25 February)

Event Time Altitude Azimuth Distance (km) Brightness Sun altitude
Rises 18:06:38 0° 350° (N) 3,646 7.6 -21.0°
Reaches altitude 10° 18:09:10 10° 353° (N) 2,697 6.8 -21.5°
Maximum altitude 18:15:20 72° 78° (ENE) 1,007 4.3 -22.4°
Drops below altitude 10° 18:21:28 10° 163° (SSE) 2,678 6.6 -23.4°
Sets 18:23:57 0° 165° (SSE) 3,618 7.4 -23.8°
